Regional Weather Roundup
Issued by NWS Green Bay, WI

Home | Current Version | Previous Version | Text Only | Print | Product List | Glossary On
Versions: 1 2 3 4 5 6 7 8 9 10 11 12 13 14 15 16 17 18 19 20 21 22 23 24 25 26 27 28 29 30 31 32 33 34 35 36 37 38 39 40 41 42 43 44 45 46 47 48 49 50
000
ASUS43 KGRB 241059
RWRGRB

NORTH-CENTRAL AND NORTHEAST WISCONSIN REGIONAL WEATHER ROUNDUP
NATIONAL WEATHER SERVICE GREEN BAY WI
600 AM CDT THU JUL 24 2014

WIZ005-009-010>012-018-019-241200-
NORTH CENTRAL WISCONSIN

CITY           SKY/WX    TMP DP  RH WIND       PRES   REMARKS
IRONWOOD       NOT AVBL
MANITOWISH WTR NOT AVBL
ARBOR VITAE    NOT AVBL
EAGLE RIVER    NOT AVBL
LAND O LAKES   NOT AVBL
RHINELANDER    CLEAR     49  48  97 SW3       30.22S
PHILLIPS       NOT AVBL
ANTIGO         NOT AVBL
TOMAHAWK       NOT AVBL
MERRILL        NOT AVBL
$$

WIZ013-073-241200-
NORTHEAST WISCONSIN

CITY           SKY/WX    TMP DP  RH WIND       PRES   REMARKS
IRON MOUNTAIN  CLEAR     43  40  89 NW3       30.20R
MARINETTE      CLEAR     48  45  87 CALM      30.19R
$$

WIZ017-030-035>037-045-241200-
CENTRAL WISCONSIN

CITY           SKY/WX    TMP DP  RH WIND       PRES   REMARKS
MEDFORD        NOT AVBL
WAUSAU         PTCLDY    52  51  97 E5        30.20S
MOSINEE        CLEAR     52  52 100 VRB3      30.22S
MARSHFIELD     CLEAR     54  51  90 S5        30.20S
WISC RAPIDS    CLEAR     52  50  93 CALM      30.22S
STEVENS POINT  NOT AVBL
WAUPACA        NOT AVBL
SHAWANO        NOT AVBL
CLINTONVILLE   NOT AVBL
$$

WIZ038-039-048-051-241200-
FOX VALLEY

CITY           SKY/WX    TMP DP  RH WIND       PRES   REMARKS
NWS GREEN BAY  CLEAR     52  50  93 CALM      30.20S
APPLETON       PTCLDY    52  46  82 N6        30.21S
OSHKOSH        MOCLDY    55  50  83 CALM      30.20R
FOND DU LAC    PTCLDY    51  49  92 S3        30.21R
$$

WIZ022-050-052-241200-
EAST CENTRAL WISCONSIN

CITY           SKY/WX    TMP DP  RH WIND       PRES   REMARKS
STURGEON BAY   CLEAR     46  43  87 CALM      30.20R
MANITOWOC      NOT AVBL
SHEBOYGAN      CLEAR     51  48  89 CALM      30.20R
$$

LMZ563-521-522-541>543-241200-
LAKESHORE

STATION/POSITION TIME  TEMP    WIND        PRES    VSBY  WAVE
                       AIR SEA DIR/SP/G                  HT/PER
                 (UTC) (F)     (DEG/KT/KT) (MB)    (MI)  (FT/S)
SHEBOYGAN LKSHOR 1000   59     340/ 11/ 12 1022.5R
KEWAUNEE LKSHORE 1000   51     300/  4/  5 1022.9R
NORTHPORT PIER   1000   55     260/  4/  5 1022.0S
N MID LAKE BUOY  1000   55 53  320/  2/  2 1021.4R         0
CHAMBERS ISLAND  1000   58     280/  2/  4 1022.4R
MENOMINEE LKSHOR 1000   56     280/  2/  4 1023.1R
$$



USA.gov is the U.S. government's official web portal to all federal, state and local government web resources and services.